Show Low, AZ

6:34 PM MST on February 25, 2017 (GMT -0700)
Show Low Municipal

Weather History for KSOW - May, 2013

Change the Weather History Date:

Monday, May 6, 2013

  Actual Average Record
Temperature  
Mean Temperature 50 °F -  
Max Temperature 60 °F 68 °F 85 °F (1989)
Min Temperature 39 °F 49 °F 24 °F (1967)
Degree Days  
Heating Degree Days 16    
Moisture  
Dew Point 33 °F    
Average Humidity 56    
Maximum Humidity 93    
Minimum Humidity 28    
Precipitation  
Precipitation 0.05 in - - ()
Sea Level Pressure  
Sea Level Pressure 30.10 in    
Wind  
Wind Speed 14 mph (SSW)    
Max Wind Speed 23 mph    
Max Gust Speed 31 mph    
Visibility 10 miles    
Events Rain    
Averages and records for this station are not official NWS values.
T = Trace of Precipitation, MM = Missing Value Source: NWS Daily Summary

Daily Weather History Graph

Daily Weather History Graph

Search for Another Location

Airport or City:

Trip Planner

Search our weather history database for the weather conditions in past years. The results will help you decide how hot, cold, wet, or windy it might be!

Date:

Astronomy

May. 06, 2013 Rise Set
Actual Time 5:25 AM MST 7:08 PM MST
Civil Twilight 4:58 AM MST 7:35 PM MST
Nautical Twilight 4:25 AM MST 8:08 PM MST
Astronomical Twilight 3:50 AM MST 8:43 PM MST
Moon 3:20 AM MST (5/6) 4:18 PM MST (5/6)
Length of Visible Light 14h 37m
Length of Day
13h 43m
Waning Crescent, 10% of the Moon is Illuminated
May 6
Waning Crescent
May 9
New
May 17
First Quarter
May 24
Full
May 31
Last Quarter

Hourly Weather History & Observations

Time (MST) Temp. Windchill Dew Point Humidity Pressure Visibility Wind Dir Wind Speed Gust Speed Precip Events Conditions
12:15 AM 53.6 °F - 21.2 °F 28% 30.06 in 10.0 mi SSW 11.5 mph - N/A   Mostly Cloudy
12:35 AM 51.8 °F - 26.6 °F 38% 30.08 in 10.0 mi SW 23.0 mph 31.1 mph N/A   Mostly Cloudy
12:55 AM 50.0 °F - 28.4 °F 43% 30.09 in 10.0 mi SW 23.0 mph 27.6 mph N/A   Mostly Cloudy
1:15 AM 46.4 °F 38.5 °F 32.0 °F 57% 30.09 in 10.0 mi SW 21.9 mph 28.8 mph N/A Rain Light Rain
1:35 AM 44.6 °F 38.4 °F 33.8 °F 66% 30.09 in 10.0 mi WSW 12.7 mph - N/A   Partly Cloudy
1:55 AM 42.8 °F 36.2 °F 37.4 °F 81% 30.09 in 5.0 mi SSW 12.7 mph - N/A Rain Light Rain
2:15 AM 41.0 °F 33.1 °F 37.4 °F 87% 30.09 in 5.0 mi South 15.0 mph 21.9 mph 0.02 in Rain Light Rain
2:55 AM 39.2 °F 31.2 °F 35.6 °F 87% 30.09 in 5.0 mi SSW 13.8 mph - 0.05 in Rain Light Rain
3:15 AM 39.2 °F 31.6 °F 37.4 °F 93% 30.09 in 5.0 mi South 12.7 mph 21.9 mph N/A Rain Light Rain
3:35 AM 39.2 °F 31.6 °F 37.4 °F 93% 30.08 in 10.0 mi South 12.7 mph - N/A   Mostly Cloudy
3:55 AM 39.2 °F 31.6 °F 35.6 °F 87% 30.08 in 10.0 mi South 12.7 mph - N/A   Mostly Cloudy
4:15 AM 39.2 °F 31.6 °F 35.6 °F 87% 30.07 in 10.0 mi South 12.7 mph - N/A   Scattered Clouds
4:35 AM 39.2 °F 30.8 °F 35.6 °F 87% 30.07 in 10.0 mi South 15.0 mph - N/A   Partly Cloudy
4:55 AM 39.2 °F 31.2 °F 35.6 °F 87% 30.07 in 10.0 mi South 13.8 mph - N/A   Partly Cloudy
5:15 AM 39.2 °F 32.5 °F 35.6 °F 87% 30.08 in 10.0 mi South 10.4 mph - N/A   Scattered Clouds
5:35 AM 39.2 °F 31.6 °F 35.6 °F 87% 30.08 in 10.0 mi South 12.7 mph - N/A   Scattered Clouds
5:55 AM 39.2 °F 32.5 °F 35.6 °F 87% 30.09 in 10.0 mi South 10.4 mph - N/A   Clear
6:15 AM 39.2 °F 33.0 °F 35.6 °F 87% 30.10 in 10.0 mi South 9.2 mph - N/A   Scattered Clouds
6:35 AM 39.2 °F 34.2 °F 35.6 °F 87% 30.11 in 10.0 mi SSW 6.9 mph - N/A   Mostly Cloudy
6:55 AM 39.2 °F 34.2 °F 35.6 °F 87% 30.11 in 10.0 mi SSW 6.9 mph - N/A   Scattered Clouds
7:15 AM 41.0 °F 34.7 °F 37.4 °F 87% 30.12 in 10.0 mi South 10.4 mph - N/A   Partly Cloudy
7:35 AM 42.8 °F 36.6 °F 37.4 °F 81% 30.12 in 10.0 mi South 11.5 mph - N/A   Clear
7:55 AM 46.4 °F 40.1 °F 37.4 °F 71% 30.12 in 10.0 mi South 15.0 mph - N/A   Scattered Clouds
8:15 AM 48.2 °F - 37.4 °F 66% 30.12 in 10.0 mi South 13.8 mph - N/A   Partly Cloudy
8:35 AM 50.0 °F - 37.4 °F 62% 30.12 in 10.0 mi South 17.3 mph 21.9 mph N/A   Clear
8:55 AM 50.0 °F - 37.4 °F 62% 30.12 in 10.0 mi South 17.3 mph - N/A   Partly Cloudy
9:15 AM 50.0 °F - 37.4 °F 62% 30.12 in 10.0 mi South 13.8 mph - N/A   Partly Cloudy
9:35 AM 53.6 °F - 37.4 °F 54% 30.12 in 10.0 mi SSW 11.5 mph 17.3 mph N/A   Clear
9:55 AM 53.6 °F - 37.4 °F 54% 30.13 in 10.0 mi SSW 15.0 mph - N/A   Clear
10:15 AM 53.6 °F - 35.6 °F 51% 30.13 in 10.0 mi South 12.7 mph - N/A   Clear
10:35 AM 55.4 °F - 35.6 °F 47% 30.12 in 10.0 mi South 15.0 mph 20.7 mph N/A   Partly Cloudy
10:55 AM 55.4 °F - 33.8 °F 44% 30.12 in 10.0 mi SW 15.0 mph 23.0 mph N/A   Scattered Clouds
11:15 AM 55.4 °F - 35.6 °F 47% 30.13 in 10.0 mi SSW 16.1 mph 19.6 mph N/A   Scattered Clouds
11:35 AM 57.2 °F - 32.0 °F 38% 30.12 in 10.0 mi SW 16.1 mph 21.9 mph N/A   Mostly Cloudy
11:55 AM 55.4 °F - 32.0 °F 41% 30.13 in 10.0 mi SW 13.8 mph 20.7 mph N/A   Mostly Cloudy
12:15 PM 55.4 °F - 35.6 °F 47% 30.12 in 10.0 mi SSW 15.0 mph 18.4 mph N/A   Overcast
12:35 PM 57.2 °F - 35.6 °F 44% 30.12 in 10.0 mi SSW 15.0 mph 23.0 mph N/A   Mostly Cloudy
12:55 PM 57.2 °F - 33.8 °F 41% 30.12 in 10.0 mi SW 16.1 mph 21.9 mph N/A   Scattered Clouds
1:15 PM 57.2 °F - 35.6 °F 44% 30.11 in 10.0 mi SSW 13.8 mph 25.3 mph N/A   Scattered Clouds
1:35 PM 59.0 °F - 32.0 °F 36% 30.11 in 10.0 mi SSW 18.4 mph 25.3 mph N/A   Scattered Clouds
1:55 PM 59.0 °F - 33.8 °F 39% 30.11 in 10.0 mi SSW 15.0 mph 26.5 mph N/A   Scattered Clouds
2:15 PM 59.0 °F - 28.4 °F 31% 30.11 in 10.0 mi SW 18.4 mph 27.6 mph N/A   Partly Cloudy
2:35 PM 59.0 °F - 32.0 °F 36% 30.10 in 10.0 mi South 20.7 mph 26.5 mph N/A   Scattered Clouds
2:55 PM 60.8 °F - 30.2 °F 31% 30.09 in 10.0 mi SW 17.3 mph 24.2 mph N/A   Scattered Clouds
3:15 PM 60.8 °F - 32.0 °F 34% 30.08 in 10.0 mi South 20.7 mph 26.5 mph N/A   Clear
3:35 PM 59.0 °F - 32.0 °F 36% 30.08 in 10.0 mi South 18.4 mph - N/A   Partly Cloudy
3:55 PM 59.0 °F - 32.0 °F 36% 30.08 in 10.0 mi South 13.8 mph 23.0 mph N/A   Partly Cloudy
4:15 PM 59.0 °F - 32.0 °F 36% 30.08 in 10.0 mi SSW 15.0 mph 24.2 mph N/A   Scattered Clouds
4:35 PM 60.8 °F - 32.0 °F 34% 30.08 in 10.0 mi SSW 18.4 mph 23.0 mph N/A   Scattered Clouds
4:55 PM 59.0 °F - 32.0 °F 36% 30.08 in 10.0 mi SW 20.7 mph 26.5 mph N/A   Partly Cloudy
5:15 PM 59.0 °F - 32.0 °F 36% 30.08 in 10.0 mi South 19.6 mph 23.0 mph N/A   Scattered Clouds
5:35 PM 59.0 °F - 32.0 °F 36% 30.08 in 10.0 mi SSW 17.3 mph 23.0 mph N/A   Mostly Cloudy
5:55 PM 57.2 °F - 30.2 °F 36% 30.08 in 10.0 mi SW 15.0 mph 20.7 mph N/A   Scattered Clouds
6:15 PM 57.2 °F - 30.2 °F 36% 30.08 in 10.0 mi SSW 18.4 mph 24.2 mph N/A   Scattered Clouds
6:35 PM 57.2 °F - 30.2 °F 36% 30.09 in 10.0 mi SSW 15.0 mph - N/A   Scattered Clouds
6:55 PM 55.4 °F - 30.2 °F 38% 30.09 in 10.0 mi SSW 11.5 mph - N/A   Partly Cloudy
7:15 PM 55.4 °F - 32.0 °F 41% 30.09 in 10.0 mi SW 9.2 mph - N/A   Partly Cloudy
7:35 PM 53.6 °F - 32.0 °F 44% 30.10 in 10.0 mi SSW 12.7 mph - N/A   Clear
7:55 PM 53.6 °F - 32.0 °F 44% 30.10 in 10.0 mi South 9.2 mph - N/A   Clear
8:15 PM 50.0 °F - 32.0 °F 50% 30.11 in 10.0 mi SSW 9.2 mph - N/A   Clear
8:35 PM 50.0 °F - 32.0 °F 50% 30.11 in 10.0 mi SSW 9.2 mph - N/A   Clear
8:55 PM 50.0 °F - 32.0 °F 50% 30.11 in 10.0 mi SSW 9.2 mph - N/A   Clear
9:15 PM 50.0 °F - 32.0 °F 50% 30.11 in 10.0 mi SSW 9.2 mph - N/A   Clear
9:35 PM 48.2 °F - 32.0 °F 54% 30.11 in 10.0 mi SSW 9.2 mph - N/A   Clear
9:55 PM 48.2 °F - 32.0 °F 54% 30.11 in 10.0 mi SSE 6.9 mph - N/A   Clear
10:15 PM 44.6 °F 40.7 °F 32.0 °F 61% 30.11 in 10.0 mi SSW 6.9 mph - N/A   Clear
10:35 PM 46.4 °F 42.9 °F 32.0 °F 57% 30.11 in 10.0 mi SSW 6.9 mph - N/A   Clear
10:55 PM 46.4 °F 42.4 °F 32.0 °F 57% 30.11 in 10.0 mi South 8.1 mph - N/A   Clear
11:15 PM 44.6 °F 42.2 °F 32.0 °F 61% 30.11 in 10.0 mi South 4.6 mph - N/A   Clear
11:35 PM 44.6 °F 40.2 °F 32.0 °F 61% 30.11 in 10.0 mi South 8.1 mph - N/A   Clear
11:55 PM 46.4 °F 41.9 °F 32.0 °F 57% 30.11 in 10.0 mi SSW 9.2 mph - N/A   Clear